Weather History for CYYG - April, 2014

Change the Weather History Date:

Sunday, April 27, 2014

  Actual Average Record
Temperature  
Mean Temperature 34 °F -  
Max Temperature 38 °F 56 °F 57 °F (2012)
Min Temperature 31 °F 38 °F 23 °F (1997)
Degree Days  
Heating Degree Days 30    
Moisture  
Dew Point 34 °F    
Average Humidity 96    
Maximum Humidity 100    
Minimum Humidity 84    
Precipitation  
Precipitation 0.03 in 0.13 in - ()
Sea Level Pressure  
Sea Level Pressure 29.83 in    
Wind  
Wind Speed 9 mph ()    
Max Wind Speed 18 mph    
Max Gust Speed 25 mph    
Visibility 4.5 miles    
Events Rain    
Averages and records for this station are not official NWS values.
T = Trace of Precipitation, MM = Missing Value Source: Averaged Metar Reports

Daily Weather History Graph

Daily Weather History Graph

Search for Another Location

Airport or City:

Trip Planner

Search our weather history database for the weather conditions in past years. The results will help you decide how hot, cold, wet, or windy it might be!

Date:

Astronomy

Apr. 27, 2014 Rise Set
Actual Time 6:05 AM ADT 8:15 PM ADT
Civil Twilight 5:32 AM ADT 8:48 PM ADT
Nautical Twilight 4:51 AM ADT 9:29 PM ADT
Astronomical Twilight 4:06 AM ADT 10:15 PM ADT
Moon 5:10 AM ADT 6:39 PM ADT
Length of Visible Light 15h 16m
Length of Day
14h 10m
Waning Crescent, 3% of the Moon is Illuminated
Apr 27
Waning Crescent
Apr 29
New
May 7
First Quarter
May 14
Full
May 21
Last Quarter

Hourly Weather History & Observations

Time (ADT) Temp. Windchill Dew Point Humidity Pressure Visibility Wind Dir Wind Speed Gust Speed Precip Events Conditions
12:00 AM 32.0 °F 26.4 °F 30.2 °F 93% 29.88 in 15.0 mi North 5.8 mph - N/A   Mostly Cloudy
1:00 AM 33.8 °F 28.6 °F 30.2 °F 87% 29.87 in 15.0 mi North 5.8 mph - N/A   Mostly Cloudy
2:00 AM 33.8 °F 27.7 °F 30.2 °F 87% 29.85 in 15.0 mi North 6.9 mph - N/A   Overcast
3:00 AM 33 °F - 30 °F 84% 29.84 in 15 mi North 8.1 mph - -   Overcast
3:00 AM 33.8 °F 27.0 °F 30.2 °F 87% 29.84 in 15.0 mi North 8.1 mph - N/A   Overcast
4:00 AM 33.8 °F 29.6 °F 30.2 °F 87% 29.84 in 15.0 mi NNW 4.6 mph - N/A   Overcast
4:22 AM 33.8 °F 28.6 °F 30.2 °F 87% 29.83 in 10.0 mi NNW 5.8 mph - N/A   Light Drizzle
4:36 AM 33.8 °F 29.6 °F 32.0 °F 93% 29.83 in 2.5 mi NNW 4.6 mph - N/A   Light Drizzle
4:50 AM 33.8 °F 28.6 °F 32.0 °F 93% 29.83 in 2.5 mi NNW 5.8 mph - N/A   Light Drizzle
5:00 AM 33.8 °F 28.6 °F 32.0 °F 93% 29.83 in 2.5 mi NNW 5.8 mph - N/A   Light Drizzle
5:37 AM 33.8 °F 29.6 °F 33.8 °F 100% 29.83 in 2.5 mi NW 4.6 mph - N/A   Light Drizzle
6:00 AM 33.8 °F 29.6 °F 33.8 °F 100% 29.83 in 1.5 mi NNW 4.6 mph - N/A   Light Drizzle
6:09 AM 33.8 °F 28.6 °F 33.8 °F 100% 29.82 in 0.8 mi NNW 5.8 mph - N/A   Light Drizzle
7:00 AM 35.6 °F 27.5 °F 35.6 °F 100% 29.82 in 1.2 mi North 11.5 mph - N/A   Light Drizzle
8:00 AM 35.6 °F 25.9 °F 35.6 °F 100% 29.81 in 1.2 mi NNE 16.1 mph - N/A   Light Drizzle
8:25 AM 35.6 °F 27.5 °F 33.8 °F 93% 29.81 in 1.0 mi North 11.5 mph 18.4 mph N/A   Light Drizzle
8:42 AM 35.6 °F 27.1 °F 33.8 °F 93% 29.81 in 1.5 mi North 12.7 mph 20.7 mph N/A   Overcast
9:00 AM 35 °F - 35 °F 99% 29.81 in 2 mi North 11.5 mph - - Rain Light Drizzle
9:00 AM 35.6 °F 27.5 °F 35.6 °F 100% 29.81 in 2.0 mi North 11.5 mph 18.4 mph N/A   Overcast
10:00 AM 35.6 °F 26.6 °F 33.8 °F 93% 29.81 in 1.5 mi NNE 13.8 mph - N/A   Overcast
10:44 AM 35.6 °F 26.2 °F 35.6 °F 100% 29.81 in 3.0 mi NNE 15.0 mph - N/A   Overcast
11:00 AM 35.6 °F 28.6 °F 35.6 °F 100% 29.81 in 5.0 mi NNE 9.2 mph 19.6 mph N/A   Overcast
12:00 PM 35.6 °F 27.5 °F 35.6 °F 100% 29.82 in 6.0 mi North 11.5 mph - N/A   Overcast
1:00 PM 37.4 °F 27.8 °F 37.4 °F 100% 29.81 in 4.0 mi NNE 17.3 mph - N/A   Overcast
2:26 PM 35.6 °F 26.6 °F 35.6 °F 100% 29.82 in 3.0 mi North 13.8 mph - N/A   Overcast
2:36 PM 35.6 °F 25.5 °F 35.6 °F 100% 29.82 in 2.0 mi NNE 17.3 mph - N/A   Light Drizzle
3:00 PM 37 °F - 36 °F 95% 29.82 in 2 mi NNE 16.1 mph - - Rain Light Drizzle
3:00 PM 37.4 °F 28.5 °F 35.6 °F 93% 29.82 in 2.0 mi NNE 15.0 mph - N/A   Light Drizzle
3:44 PM 35.6 °F 25.9 °F 35.6 °F 100% 29.82 in 2.0 mi North 16.1 mph - N/A   Light Drizzle
4:00 PM 35.6 °F 26.2 °F 35.6 °F 100% 29.82 in 2.0 mi North 15.0 mph 23.0 mph N/A   Light Drizzle
5:00 PM 35.6 °F 25.9 °F 35.6 °F 100% 29.83 in 2.0 mi NNE 16.1 mph - N/A   Light Drizzle
6:00 PM 33.8 °F 25.3 °F 33.8 °F 100% 29.83 in 2.0 mi North 11.5 mph 19.6 mph N/A   Light Drizzle
7:00 PM 33.8 °F 24.8 °F 33.8 °F 100% 29.84 in 2.5 mi North 12.7 mph - N/A Rain Light Rain
8:00 PM 33.8 °F 23.5 °F 33.8 °F 100% 29.84 in 5.0 mi North 16.1 mph - N/A   Light Drizzle
9:00 PM 34 °F - 34 °F 100% 29.86 in 4 mi NNE 15.0 mph - - Rain Light Drizzle
9:00 PM 33.8 °F 23.9 °F 33.8 °F 100% 29.86 in 4.0 mi NNE 15.0 mph - N/A   Light Drizzle
9:38 PM 35.6 °F 25.2 °F 33.8 °F 93% 29.85 in 2.0 mi NNE 18.4 mph - N/A   Light Drizzle
10:00 PM 35.6 °F 25.5 °F 33.8 °F 93% 29.85 in 1.0 mi NNE 17.3 mph - N/A   Light Drizzle
11:00 PM 35.6 °F 25.2 °F 35.6 °F 100% 29.86 in 1.0 mi NNE 18.4 mph 25.3 mph N/A   Light Drizzle
11:29 PM 35.6 °F 25.9 °F 35.6 °F 100% 29.86 in 2.0 mi NNE 16.1 mph - N/A   Overcast